Regional Weather Roundup
Issued by NWS

Home | Current Version | Previous Version | Text Only | Print | Product List | Glossary Off
Versions: 1 2 3 4 5 6 7 8 9 10 11 12 13 14 15 16 17 18 19 20 21 22 23 24 25 26 27 28

000
ASUS45 KCYS 310110
RWRWY

WYOMING REGIONAL WEATHER ROUNDUP
NATIONAL WEATHER SERVICE CHEYENNE WY
700 PM MDT TUE AUG 30 2016

NOTE:  "FAIR" INDICATES FEW OR NO CLOUDS BELOW 12,000 FEET
WITH NO SIGNIFICANT WEATHER AND/OR OBSTRUCTIONS TO VISIBILITY.

WYZ001-310200-
YELLOWSTONE NATIONAL PARK

CITY           SKY/WX    TMP DP  RH WIND       PRES   REMARKS
LK YELLOWSTONE   N/A     70  33  25 CALM      30.36F
W YELLOWSTONE  NOT AVBL

$$
WYZ002>013-054>058-071-098>099-310200-
NORTHERN WYOMING

CITY           SKY/WX    TMP DP  RH WIND       PRES   REMARKS
JACKSON        SUNNY     79  30  17 CALM      30.22
CODY           FAIR      84  30  14 SE12      30.13S
GREYBULL       FAIR      91  24   9 S7        30.04S
WORLAND        FAIR      90  26  10 S9        30.07S
SHERIDAN       FAIR      88  31  13 SE12G22   30.06F
BUFFALO        FAIR      83  28  13 S15       30.18R
GILLETTE       FAIR      82  44  26 SE17      30.16F
HULETT         FAIR      79  45  29 S7        30.20S
NEWCASTLE      FAIR      81  43  26 SE10G18   30.21F

$$
WYZ014>020-022>026-101>103-310200-
CENTRAL WYOMING

CITY           SKY/WX    TMP DP  RH WIND       PRES   REMARKS
BIG PINEY      FAIR      76  32  20 W5        30.29F
PINEDALE       FAIR      79  25  13 SW7       30.30S
DUBOIS         FAIR      73  27  17 SE12      30.30S
LANDER         FAIR      84  30  14 CALM      30.19S
RIVERTON       FAIR      84  26  12 E6        30.18F
CASPER         FAIR      80  38  22 E16       30.21S
DOUGLAS        FAIR      79  36  21 SE14      30.24S

$$
WYZ021-027>030-104>119-310200-
SOUTHERN WYOMING

CITY           SKY/WX    TMP DP  RH WIND       PRES   REMARKS
EVANSTON       FAIR      79  21  11 E10       30.28S
FORT BRIDGER   FAIR      81  20  10 E7        30.31S
ROCK SPRINGS   FAIR      79  18  10 CALM      30.27S
DIXON          FAIR      79  32  18 NW6       30.25S
RAWLINS        FAIR      78  31  17 E13       30.29S
SARATOGA       FAIR      75  37  25 E10       30.30R
LARAMIE        FAIR      69  40  34 SE15      30.36S
CHEYENNE       FAIR      68  50  52 SE7       30.33S
TORRINGTON     FAIR      79  52  38 E10       30.20S
PINE BLUFFS    FAIR      72  52  49 SE10      30.29R

$$




USA.gov is the U.S. government's official web portal to all federal, state and local government web resources and services.